| time (UTC) | temp F | wind direction | speed MPH | gust MPH | rain 1hr in | rain 24hr in | rain mn in | humidity % | barometer mb |
| 20260507061552 | 52 | 0 | 0.0 | 0.0 | 0.00 | 0.00 | 0.00 | 66 | 1023.2 |
| 20260507060052 | 52 | 0 | 0.0 | 0.0 | 0.00 | 0.00 | 0.00 | 67 | 1023.1 |
| 20260507054556 | 52 | 0 | 0.0 | 0.0 | 0.00 | 0.00 | 0.00 | 64 | 1023.0 |
| 20260507053050 | 52 | 0 | 0.0 | 0.0 | 0.00 | 0.00 | 0.00 | 67 | 1023.1 |
| 20260507051556 | 52 | 0 | 0.0 | 0.0 | 0.00 | 0.00 | 0.00 | 69 | 1023.1 |
| 20260507050057 | 51 | 0 | 0.0 | 0.0 | 0.00 | 0.00 | 0.00 | 72 | 1023.1 |
| 20260507044551 | 50 | 0 | 0.0 | 0.0 | 0.00 | 0.00 | 0.00 | 78 | 1023.0 |
| 20260507043054 | 50 | 0 | 0.0 | 0.0 | 0.00 | 0.00 | 0.00 | 80 | 1023.1 |
| 20260507041553 | 51 | 0 | 0.0 | 0.0 | 0.00 | 0.00 | 0.00 | 79 | 1023.0 |
| 20260507040108 | 51 | 0 | 0.0 | 0.0 | 0.00 | 0.00 | 0.00 | 80 | 1022.9 |
| 20260507034618 | 51 | 0 | 0.0 | 0.0 | 0.00 | 0.00 | 0.00 | 81 | 1022.7 |
| 20260507033105 | 51 | 0 | 0.0 | 0.0 | 0.00 | 0.00 | 0.00 | 81 | 1022.6 |
| 20260507031603 | 52 | 0 | 0.0 | 2.0 | 0.00 | 0.00 | 0.00 | 80 | 1022.5 |
| 20260507030054 | 52 | 360 | 2.0 | 4.0 | 0.00 | 0.00 | 0.00 | 79 | 1022.4 |
| 20260507024604 | 52 | 5 | 2.0 | 4.0 | 0.00 | 0.00 | 0.00 | 77 | 1022.2 |
| 20260507023058 | 53 | 0 | 1.0 | 4.0 | 0.00 | 0.00 | 0.00 | 75 | 1022.0 |
| 20260507021601 | 54 | 355 | 2.0 | 4.0 | 0.00 | 0.00 | 0.00 | 73 | 1022.1 |
| 20260507020048 | 54 | 338 | 2.0 | 5.0 | 0.00 | 0.00 | 0.00 | 72 | 1021.8 |
| 20260507014556 | 55 | 11 | 2.0 | 5.0 | 0.00 | 0.00 | 0.00 | 69 | 1021.8 |
| 20260507013103 | 56 | 336 | 2.0 | 7.0 | 0.00 | 0.00 | 0.00 | 66 | 1021.8 |
| 20260507011552 | 57 | 322 | 2.0 | 6.0 | 0.00 | 0.00 | 0.00 | 63 | 1021.8 |
| 20260507010055 | 58 | 286 | 1.0 | 6.0 | 0.00 | 0.00 | 0.00 | 63 | 1021.7 |
| 20260507004553 | 59 | 5 | 1.0 | 7.0 | 0.00 | 0.00 | 0.00 | 61 | 1021.7 |
| 20260507003048 | 59 | 337 | 3.0 | 10.0 | 0.00 | 0.00 | 0.00 | 60 | 1021.7 |
| 20260507001608 | 60 | 5 | 3.0 | 8.0 | 0.00 | 0.00 | 0.00 | 61 | 1021.5 |
| 20260507000051 | 60 | 336 | 2.0 | 5.0 | 0.00 | 0.00 | 0.00 | 61 | 1021.4 |
| 20260506234559 | 61 | 284 | 2.0 | 6.0 | 0.00 | 0.00 | 0.00 | 62 | 1021.2 |
| 20260506233047 | 61 | 22 | 2.0 | 7.0 | 0.00 | 0.00 | 0.00 | 61 | 1021.3 |
| 20260506231555 | 61 | 0 | 1.0 | 9.0 | 0.00 | 0.00 | 0.00 | 56 | 1021.3 |
| 20260506230053 | 61 | 5 | 2.0 | 10.0 | 0.00 | 0.00 | 0.00 | 57 | 1021.2 |
| 20260506224604 | 61 | 16 | 2.0 | 8.0 | 0.00 | 0.00 | 0.00 | 57 | 1021.3 |
| 20260506223057 | 62 | 325 | 2.0 | 6.0 | 0.00 | 0.00 | 0.00 | 55 | 1021.4 |
| 20260506221552 | 62 | 0 | 0.0 | 8.0 | 0.00 | 0.00 | 0.00 | 57 | 1021.5 |
| 20260506220107 | 60 | 355 | 1.0 | 10.0 | 0.00 | 0.00 | 0.00 | 55 | 1021.7 |
| 20260506214551 | 60 | 13 | 4.0 | 9.0 | 0.00 | 0.00 | 0.00 | 56 | 1021.6 |
| 20260506213053 | 61 | 21 | 3.0 | 10.0 | 0.00 | 0.00 | 0.00 | 56 | 1021.7 |
| 20260506211556 | 61 | 352 | 5.0 | 10.0 | 0.00 | 0.00 | 0.00 | 57 | 1021.6 |
| 20260506210050 | 60 | 5 | 2.0 | 9.0 | 0.00 | 0.00 | 0.00 | 57 | 1021.6 |
| 20260506204556 | 60 | 360 | 2.0 | 8.0 | 0.00 | 0.00 | 0.00 | 61 | 1021.7 |
| 20260506203101 | 60 | 0 | 3.0 | 9.0 | 0.00 | 0.00 | 0.00 | 57 | 1021.8 |
| 20260506201556 | 60 | 10 | 2.0 | 7.0 | 0.00 | 0.00 | 0.00 | 59 | 1021.9 |
| 20260506200053 | 60 | 5 | 2.0 | 9.0 | 0.00 | 0.00 | 0.00 | 60 | 1022.0 |
| 20260506194554 | 60 | 330 | 3.0 | 6.0 | 0.00 | 0.01 | 0.00 | 57 | 1022.2 |
| 20260506193059 | 60 | 351 | 1.0 | 5.0 | 0.00 | 0.01 | 0.00 | 61 | 1022.2 |
| 20260506191552 | 58 | 5 | 2.0 | 6.0 | 0.00 | 0.01 | 0.00 | 58 | 1022.3 |
| 20260506190052 | 57 | 0 | 2.0 | 6.0 | 0.00 | 0.01 | 0.00 | 63 | 1022.3 |
| 20260506184550 | 58 | 13 | 2.0 | 9.0 | 0.00 | 0.01 | 0.00 | 61 | 1022.2 |
| 20260506183058 | 57 | 0 | 2.0 | 6.0 | 0.00 | 0.01 | 0.00 | 67 | 1022.2 |
| 20260506181600 | 56 | 348 | 3.0 | 6.0 | 0.00 | 0.01 | 0.00 | 65 | 1022.3 |
| 20260506180054 | 55 | 346 | 3.0 | 6.0 | 0.00 | 0.01 | 0.00 | 64 | 1022.1 |
| 20260506174553 | 55 | 319 | 3.0 | 6.0 | 0.00 | 0.01 | 0.00 | 60 | 1022.0 |
| 20260506173121 | 54 | 355 | 2.0 | 8.0 | 0.00 | 0.01 | 0.00 | 62 | 1021.8 |
| 20260506171555 | 53 | 5 | 2.0 | 5.0 | 0.00 | 0.01 | 0.00 | 62 | 1021.8 |
| 20260506170057 | 52 | 360 | 2.0 | 5.0 | 0.00 | 0.01 | 0.00 | 65 | 1021.6 |
| 20260506164550 | 51 | 333 | 2.0 | 8.0 | 0.00 | 0.01 | 0.00 | 66 | 1021.5 |
| 20260506163055 | 50 | 327 | 2.0 | 7.0 | 0.00 | 0.01 | 0.00 | 69 | 1021.3 |
| 20260506161552 | 49 | 313 | 2.0 | 5.0 | 0.00 | 0.01 | 0.00 | 71 | 1021.3 |
| 20260506160108 | 48 | 315 | 2.0 | 4.0 | 0.00 | 0.01 | 0.00 | 74 | 1020.9 |
| 20260506154554 | 48 | 5 | 3.0 | 5.0 | 0.00 | 0.03 | 0.00 | 73 | 1020.7 |
| 20260506153053 | 47 | 336 | 3.0 | 7.0 | 0.00 | 0.03 | 0.00 | 71 | 1020.8 |
| 20260506151554 | 46 | 325 | 2.0 | 8.0 | 0.00 | 0.03 | 0.00 | 71 | 1020.8 |
| 20260506150050 | 45 | 0 | 1.0 | 4.0 | 0.00 | 0.03 | 0.00 | 74 | 1020.6 |
| 20260506144602 | 44 | 0 | 0.0 | 4.0 | 0.00 | 0.03 | 0.00 | 80 | 1020.7 |
| 20260506143052 | 43 | 0 | 0.0 | 0.0 | 0.00 | 0.03 | 0.00 | 82 | 1020.5 |
| 20260506141552 | 41 | 0 | 0.0 | 0.0 | 0.00 | 0.03 | 0.00 | 86 | 1020.1 |
| 20260506140048 | 40 | 0 | 0.0 | 0.0 | 0.00 | 0.03 | 0.00 | 90 | 1020.3 |
| 20260506134548 | 39 | 0 | 0.0 | 0.0 | 0.00 | 0.05 | 0.00 | 94 | 1019.9 |
| 20260506133109 | 38 | 0 | 0.0 | 0.0 | 0.00 | 0.05 | 0.00 | 95 | 1020.0 |
| 20260506131559 | 38 | 0 | 0.0 | 0.0 | 0.00 | 0.05 | 0.00 | 96 | 1019.8 |
| 20260506130055 | 38 | 0 | 0.0 | 0.0 | 0.00 | 0.05 | 0.00 | 97 | 1019.6 |
| 20260506124548 | 37 | 0 | 0.0 | 0.0 | 0.00 | 0.06 | 0.00 | 97 | 1019.5 |
| 20260506123049 | 37 | 0 | 0.0 | 0.0 | 0.00 | 0.06 | 0.00 | 97 | 1019.1 |
| 20260506121547 | 37 | 0 | 0.0 | 0.0 | 0.00 | 0.06 | 0.00 | 97 | 1019.2 |
| 20260506120056 | 37 | 0 | 0.0 | 0.0 | 0.00 | 0.06 | 0.00 | 97 | 1019.0 |
| 20260506114549 | 37 | 0 | 0.0 | 0.0 | 0.00 | 0.13 | 0.00 | 97 | 1019.0 |
| 20260506113050 | 37 | 0 | 0.0 | 0.0 | 0.00 | 0.13 | 0.00 | 97 | 1018.9 |
| 20260506111552 | 37 | 0 | 0.0 | 0.0 | 0.00 | 0.13 | 0.00 | 97 | 1018.8 |
| 20260506110050 | 37 | 0 | 0.0 | 0.0 | 0.00 | 0.13 | 0.00 | 97 | 1018.7 |
| 20260506104550 | 37 | 0 | 0.0 | 0.0 | 0.00 | 0.18 | 0.00 | 97 | 1018.7 |
| 20260506103050 | 37 | 0 | 0.0 | 4.0 | 0.00 | 0.18 | 0.00 | 97 | 1018.7 |
| 20260506101549 | 37 | 0 | 0.0 | 0.0 | 0.00 | 0.18 | 0.00 | 97 | 1018.7 |
| 20260506100046 | 36 | 0 | 0.0 | 0.0 | 0.00 | 0.18 | 0.00 | 97 | 1018.6 |
| 20260506094607 | 37 | 343 | 2.0 | 5.0 | 0.00 | 0.19 | 0.00 | 97 | 1018.6 |
| 20260506093048 | 37 | 360 | 1.0 | 8.0 | 0.00 | 0.19 | 0.00 | 97 | 1018.6 |
| 20260506091553 | 37 | 15 | 2.0 | 5.0 | 0.00 | 0.19 | 0.00 | 97 | 1018.6 |
| 20260506090052 | 37 | 329 | 0.0 | 5.0 | 0.00 | 0.19 | 0.00 | 97 | 1018.7 |
| 20260506084552 | 37 | 344 | 2.0 | 5.0 | 0.00 | 0.21 | 0.00 | 97 | 1018.7 |
| 20260506083046 | 37 | 0 | 0.0 | 5.0 | 0.00 | 0.21 | 0.00 | 97 | 1018.8 |
| 20260506081548 | 37 | 0 | 0.0 | 5.0 | 0.00 | 0.21 | 0.00 | 97 | 1019.2 |
| 20260506073050 | 37 | 5 | 2.0 | 8.0 | 0.00 | 0.23 | 0.00 | 96 | 1019.5 |
| 20260506071551 | 37 | 355 | 2.0 | 10.0 | 0.00 | 0.23 | 0.00 | 96 | 1019.5 |